Location: Newport
(44.6370°N, 124.0520°W)
Time: 06:29:12
(UTC-07:00)

STRAND 1 - Visible Passes

Search period start: 20 June 2018 00:00
Search period end: 30 June 2018 00:00
Orbit: 769 x 781 km, 98.5° (Epoch: 19 June)

Date Brightness Start Highest point End Pass type
(mag) Time Alt. Az. Time Alt. Az. Time Alt. Az.
20 Jun ? 22:55:58 10° NW 22:57:18 11° NW 22:58:40 10° WNW visible
21 Jun ? 22:20:08 10° NNW 22:23:52 21° WNW 22:27:37 10° WSW visible
22 Jun ? 21:45:31 10° N 21:50:16 38° WNW 21:54:59 10° SW visible
23 Jun ? 22:53:05 10° NW 22:54:46 12° NW 22:56:27 10° WNW visible
24 Jun ? 22:17:28 10° NNW 22:21:19 22° WNW 22:25:09 10° WSW visible
25 Jun ? 21:42:53 10° N 21:47:41 40° WNW 21:52:28 10° SW visible
26 Jun ? 22:50:15 10° NNW 22:52:13 12° NW 22:54:11 10° WNW visible
27 Jun ? 22:14:49 10° NNW 22:18:45 23° WNW 22:22:41 10° WSW visible
28 Jun ? 21:40:16 10° N 21:45:07 42° WNW 21:49:56 10° SW visible
29 Jun ? 22:47:28 10° NNW 22:49:40 13° NW 22:51:52 10° W visible
